Location: Boston
(42.3580°N, 71.0600°W)
Time: 02:40:02
(UTC-04:00)

Envisat - Pass Details

Date: 09 October 2017
Orbit: 764 x 766 km, 98.2° (Epoch: 21 October)

Event Time Altitude Azimuth Distance (km) Brightness Sun altitude
Exits shadow 21:44:40 19° 276° (W) 1,744 5.3 -38.8°
Drops below altitude 10° 21:47:48 10° 314° (NW) 2,309 6.1 -39.3°
Sets 21:50:45 0° 332° (NNW) 3,240 7.0 -39.7°
